Tracking 28790 objects as of 18-Apr-2024
HD Live streaming from Space Station
objects crossing your sky now

FENGYUN 1C DEB

Track FENGYUN 1C DEB now!
10-day predictions


NORAD ID: 30242
Int'l Code: 1999-025XB
Perigee: 841.6 km
Apogee: 856.4 km
Inclination: 98.7 °
Period: 101.8 minutes
Semi major axis: 7220 km
RCS: 0.0484 m2 (small)
Launch date: May 10, 1999
Source: People's Republic of China (PRC)
Launch site: Taiyaun Space Center, China (TSC)

Note: This is SATELLITE DEBRIS
Your satellite tracking list
Your tracking list is empty




NASA's NSSDC Master Catalog

Two Line Element Set (TLE):
1 30242U 99025XB  24109.06502448  .00003029  00000-0  15822-2 0  9995
2 30242  98.7442 149.7133 0010198 344.7732  44.4157 14.15129480888918
Source of the keplerian elements: AFSPC